Regional Weather Roundup
Issued by NWS

Home | Current Version | Previous Version | Graphics & Text | Print | Product List | Glossary On
Versions: 1 2 3 4 5 6 7 8 9 10 11 12 13 14 15 16 17 18 19 20 21 22 23 24 25 26 27 28 29 30 31 32 33 34 35 36 37 38 39 40 41 42 43 44 45 46 47 48 49 50
000
ASUS43 KMKX 281300
RWRWI

WISCONSIN REGIONAL WEATHER ROUNDUP
NATIONAL WEATHER SERVICE MILWAUKEE/SULLIVAN WI
700 AM CST SUN DEC 28 2014

NOTE: "FAIR" INDICATES FEW OR NO CLOUDS BELOW 12,000 FEET WITH NO
SIGNIFICANT WEATHER AND/OR OBSTRUCTIONS TO VISIBILITY.

WIZ001-002-006>008-014>016-023>028-281400-
NORTHWEST WISCONSIN

CITY           SKY/WX    TMP DP  RH WIND       PRES   REMARKS
SUPERIOR ARPT  MOCLDY    18  11  75 NW9       30.09R WCI   7
ASHLAND        CLOUDY    15  12  88 SW6       30.07R WCI   6
HAYWARD        CLOUDY    16  12  84 SW3       30.06R FOG
SIREN          FLURRIES  16  12  86 W5        30.08R WCI   8
CUMBERLAND     FLURRIES  12  10  92 SW3       30.05S
RICE LAKE      CLOUDY    14  10  85 SW3       30.09R
CHETEK         CLOUDY    12   9  87 SW5       30.08R WCI   4
LADYSMITH      CLOUDY    10   8  89 CALM      30.08R
EAU CLAIRE     NOT AVBL
MENOMONIE      CLEAR      4   1  86 CALM      30.10S FOG
NEW RICHMOND   PTCLDY    10   7  89 S5        30.09S WCI   1
OSCEOLA        CLOUDY    10   8  91 CALM      30.12S
$$

WIZ003>005-009-010-017-018-281400-
NORTH CENTRAL WISCONSIN

CITY           SKY/WX    TMP DP  RH WIND       PRES   REMARKS
MANITOWISH WTR CLOUDY    12  10  91 W3        29.99R
ARBOR VITAE    CLOUDY    14  11  89 W3        29.99S
WOODRUFF       CLOUDY    14  11  89 W3        29.99S
RHINELANDER    MOCLDY     3   1  91 W5        30.00S WCI  -6
EAGLE RIVER    CLOUDY    11   8  85 CALM      29.98S
LAND O LAKES   CLOUDY    13  11  89 W6        29.98R WCI   4
PHILLIPS       FLURRIES  10   8  90 SW5       30.02S WCI   2
TOMAHAWK       MOCLDY     6   3  88 CALM      30.03R
MEDFORD        CLOUDY    10   8  91 W3        30.04S FOG
MERRILL        CLOUDY    10   8  91 SW5       30.04S WCI   2
$$

WIZ029-030-035-036-043>047-281400-
CENTRAL WISCONSIN

CITY           SKY/WX    TMP DP  RH WIND       PRES   REMARKS
WAUSAU         CLOUDY    11   8  88 W3        30.05S
MOSINEE        NOT AVBL
MARSHFIELD     CLOUDY    12   8  84 W3        30.07S
STEVENS POINT  CLOUDY    12   9  89 W6        30.09R WCI   2
WAUPACA        CLEAR     17  12  81 W5        30.10S WCI  10
WAUTOMA        NOT AVBL
WISC RAPIDS    MOCLDY    12   8  84 W5        30.11S WCI   4
CAMP DOUGLAS   NOT AVBL
$$

WIZ011>013-019>022-031-037>040-048>050-281400-
NORTHEAST WISCONSIN

CITY           SKY/WX    TMP DP  RH WIND       PRES   REMARKS
ANTIGO         CLOUDY     8   6  90 W7        30.03R WCI  -3
SHAWANO        CLEAR     16  11  80 W6        30.10R WCI   8
OCONTO         CLEAR     17  13  86 W6        30.08S WCI   8
STURGEON BAY   CLEAR     19  12  73 W8        30.08S WCI   9
GREEN BAY      CLEAR     21  16  81 W9        30.09S WCI  11
MANITOWOC      NOT AVBL
APPLETON       CLEAR     18  12  79 W9        30.09R WCI   6
CLINTONVILLE   CLEAR     16  10  79 W5        30.09S WCI   9
OSHKOSH        CLEAR     19  12  74 W8        30.10R WCI   9
$$

WIZ032>034-041-042-053>061-281400-
SOUTHWEST WISCONSIN

CITY           SKY/WX    TMP DP  RH WIND       PRES   REMARKS
LA CROSSE      CLEAR     14   9  80 S8        30.14S WCI   3
SPARTA         CLEAR      9   7  89 CALM      30.13S
VIROQUA        CLEAR     13  13 100 SW3       30.09S
BOSCOBEL       CLEAR     16  12  84 CALM      30.15F
PRAIRIE DU CHI CLEAR     16  12  83 CALM      30.16F
PLATTEVILLE    CLEAR     17  15  93 CALM      30.13F
$$

WIZ056-057-062-063-064-067-068-281400-
SOUTH CENTRAL WISCONSIN

CITY           SKY/WX    TMP DP  RH WIND       PRES   REMARKS
REEDSBURG      CLEAR     15  11  83 W5        30.12S WCI   8
BARABOO/DELLS  CLEAR     15  11  83 SW5       30.11S WCI   8
LONE ROCK      NOT AVBL
MINERAL POINT  CLEAR     18  16  93 W5        30.11F WCI  11
MADISON        FAIR      18  11  74 W3        30.12S
MIDDLETON      FAIR      18  12  77 W6        30.13S WCI  10
WATERTOWN      CLEAR     19  14  81 CALM      30.12R
MONROE         CLEAR     18  16  93 W6        30.12F WCI   9
JANESVILLE     CLEAR     19  14  79 W6        30.14S WCI  11
$$

WIZ051-052-058>065-066-070>072-281400-
SOUTHEAST WISCONSIN

CITY           SKY/WX    TMP DP  RH WIND       PRES   REMARKS
MILWAUKEE      PTCLDY    23  15  71 W5        30.12S WCI  17
WAUKESHA       NOT AVBL
MILWAUKEE/TIMM NOT AVBL
RACINE         CLEAR     22  17  81 W3        30.14S
BURLINGTON     CLEAR     18  16  90 W3        30.13F
KENOSHA        CLEAR     22  18  85 W7        30.12F WCI  13
FOND DU LAC    CLEAR     19  13  77 SW3       30.11R
SHEBOYGAN      CLEAR     21  15  78 W12       30.09S WCI   9
WEST BEND      CLEAR     21  14  73 W7        30.10R WCI  13
JUNEAU         CLEAR     17  13  85 SW6       30.12S WCI   9
$$

LSZ147-162-281400-
LAKE SUPERIOR

STATION/POSITION TIME  TEMP    WIND        PRES    WAVE
                       AIR SEA DIR/SP/G            HT/PER
                 (UTC) (F)     (DEG/KT/KT) (MB)    (FT/S)
DEVILS ISLAND    1200   20     300/ 17/ 20 1018.8R
PORT WING        1240   22     300/ 13/ 16 1018.6R
SAXON HARBOR     1200   19     220/  4/  8 1017.6R
$$

LMZ867-665-643>646-281400-
LAKE MICHIGAN

STATION/POSITION TIME  TEMP    WIND        PRES    WAVE
                       AIR SEA DIR/SP/G            HT/PER
                 (UTC) (F)     (DEG/KT/KT) (MB)    (FT/S)
CHAMBERS ISLAND  1200   20     230/  6/ 11 1017.9R
NORTHPORT PIER   1202   22     290/  5/ 13 1017.3R
SISTER BAY       1113          290/ 15/ 18   N/A
ALGOMA LAKESHORE 1115          290/  7/ 10   N/A
KEWAUNEE LAKESHO 1200   22     290/ 10/ 13 1017.4R
SHEBOYGAN LAKESH 1200   23 37  270/ 10/ 12 1019.9R
PORT WASHINGTON  1200   24     270/  6/ 10 1020.3R
MILWAUKEE LAKESH 1200   25     270/  9/ 12   N/A
KENOSHA   LAKESH 1200   25     270/  9/ 12 1020.7R
$$

TC  - TEMPERATURE IN CELSIUS
VSB - VISIBILITY IN STATUTE MILES
WCI - WIND CHILL INDEX
HX  - HEAT INDEX



USA.gov is the U.S. government's official web portal to all federal, state and local government web resources and services.